Tracking 19720 objects as of 26-Jun-2019
HD Live streaming from Space Station
objects crossing your sky now

COSMOS 397 DEB


COSMOS 397 DEB is no longer on orbit


NORAD ID: 17663
Int'l Code: 1971-015DB
Perigee: N/A
Apogee: N/A
Inclination: N/A
Period: N/A
Semi major axis: N/A
RCS: N/A
Launch date: February 25, 1971
Source: Commonwealth of Independent States (former USSR) (CIS)
Launch site: TYURATAM MISSILE AND SPACE COMPLEX (TTMTR)
Decay date: 2014-05-04

Note: This is SATELLITE DEBRIS
aabbcc
Your satellite tracking list
Your tracking list is empty




NASA's NSSDC Master Catalog

Two Line Element Set (TLE):
1 17663U 71015DB  14123.98244223  .32712095  67760-5  12520-1 0  9993
2 17663 065.6072 334.2839 0032105 257.2841 224.5477 16.22294642506508
Source of the keplerian elements: AFSPC